IXPE (49954 NORAD) Tracking and Keplerian Element Data

This shows tracking and keplerian element data for the satellite.

Feedback or suggestion? Click here.




ElementValue
Catalog49954
NameIXPE
Epoch Orbit2422
Epoch Day140.32741183
Epoch Year2022
RAAN229.2758
Inclination0.2294
Eccentricity0.0011152
Argument of Perigee240.9658
Mean Anonmoly249.878
Mean Motion14.91282575
Decay Rate4.257E-05
L11 49954U 21121A 22140.32741183 .00004257 00000+0 34119-3 0 9994
L22 49954 0.2294 229.2758 0011152 240.9658 249.8780 14.91282575 24221

Live tracking and technical data element details for IXPE (NORAD 49954). IXPE can be tracked NOW for your location showing map with azimuth and elevation plus other details from your city location.

Track the satellite on the map from your city or location and see movement details for azimuth, elevation, latitude, longitude, range, height, and movement on the map or in text.







IsCatalogInMostPopularTable: catalog: 49954, numindb: 24
Update: records affected: 1



GetName: 49954 IXPE

Hit Count: updated at: Mon, 23 May 2022 20:49:59 GMT